Showing default

SKYNET 5C, 33055

Orbit data source: Space-Track

SKYNET 5C, 33055 is a payload satellite owned by Paradigm (UK) in GEO that was launched on Thu, 12 Jun 2008 UTC via an ARIANE 5ECA launch vehicle from the French Guiana (FRGUI). Payload-class satellites include a variety of spacecraft equipped with specific instruments for various scientific and technological missions. These include communications satellites like Starlink; space stations such as the ISS; scientific satellites like the Hubble; Earth observation satellites from companies like Planet Labs, Umbra, and HawkEye 360; GPS; miniature CubeSats for education and research; and military/defense satellites.

Not visible in the next 10 days
Identifier
33055, 2008-030A
Orbit
GEO
Country
Flag of UKUK
Related business
Manufacturer
EADS/Bremen
Mission
Operational Defense Communications
Bus & Motor
EUROSTAR 3000, R-4D-15-375
Mass
4,635 kg wet, 2,170 kg dry
Launch date (UTC)
2008-06-12 (18 years ago)
Launch vehicle
ARIANE 5ECA
Launch site
French Guiana (FRGUI)
Object type
Payload
Rocket body
Debris
Shape & HBR
Box + 2 Pan, 17.0 m
Radar Cross Section
41.425 m², Large (>1 m²)

Expand to show TLE details & history
Last TLE update: 2 days ago

TLE from 2 days ago
0 SKYNET 5C
1 33055U 08030A   26171.38851713 -.00000145  00000-0  00000+0 0  9990
2 33055   3.7981  77.0053 0004099  19.6039 294.0630  1.00271687 65982
Epoch: 2026-06-20T09:19Z
TLE epoch observation values (Epoch: 2026-06-20T09:19:27.880Z)
Latitude
-2.74366°
Longitude
-17.76268°
Altitude
35,779.431 km
Speed
3.075 km/s
True Right ascension
02h 02m 49s
True Declination
-2° 44' 27"
Sunlit
Object was in daylight at epoch
Visualization orbit readout
Latitude
Unknown
Longitude
Unknown
Altitude
Unknown
Speed
Unknown
Apparent Right ascension
Unknown
Apparent Declination
Unknown
Sunlit
N/A
Visualization observer readout
Local Sidereal Time
00:50:57
Azimuth
Unknown
Elevation
Unknown
Doppler factor
Unknown
Orbital elements
Apogee altitude
35,804.97 km
Perigee altitude
35,770.402 km
Semi-major axis
42,165.823 km
Eccentricity
0.00041
Inclination
3.7981°
RAAN
77.0053°
Arg. of periapsis
19.6039°
True anomaly
294.0201°
Mean anomaly
294.063°
Eccentric anomaly
294.04155°
Mean motion
0.25067 °/min
Orbital period
1,436.15 mins
BSTAR
0
Loading maneuver chart data...
Computing Atmospheric mass density...
Loading historical data...
Loading historical data...
Loading historical data...
Loading historical data...
Loading historical data...
Loading historical data...
Loading historical data...

Documentation

Showing up to 5 results
|